Weather History for KBLH - December, 2013

Change the Weather History Date:

Saturday, December 7, 2013

  Actual Average Record
Temperature  
Mean Temperature 48 °F -  
Max Temperature 61 °F 66 °F 78 °F (2006)
Min Temperature 35 °F 42 °F 28 °F (1978)
Degree Days  
Heating Degree Days 17    
Moisture  
Dew Point 33 °F    
Average Humidity 54    
Maximum Humidity 78    
Minimum Humidity 32    
Precipitation  
Precipitation 0.00 in - - ()
Sea Level Pressure  
Sea Level Pressure 29.98 in    
Wind  
Wind Speed 10 mph (SSW)    
Max Wind Speed 23 mph    
Max Gust Speed 34 mph    
Visibility 10 miles    
Events      
Averages and records for this station are not official NWS values.
T = Trace of Precipitation, MM = Missing Value Source: NWS Daily Summary

Daily Weather History Graph

Daily Weather History Graph

Search for Another Location

Airport or City:

Trip Planner

Search our weather history database for the weather conditions in past years. The results will help you decide how hot, cold, wet, or windy it might be!

Date:

Astronomy

Dec. 07, 2013 Rise Set
Actual Time 6:30 AM PST 4:30 PM PST
Civil Twilight 6:03 AM PST 4:57 PM PST
Nautical Twilight 5:32 AM PST 5:28 PM PST
Astronomical Twilight 5:01 AM PST 5:59 PM PST
Moon 10:28 AM PST (12/7) 10:05 PM PST (12/7)
Length of Visible Light 10h 54m
Length of Day
10h 00m
Waxing Crescent, 30% of the Moon is Illuminated
Dec 7
Waxing Crescent
Dec 9
First Quarter
Dec 17
Full
Dec 25
Last Quarter
Jan 1
New

Hourly Weather History & Observations

Time (PST) Temp. Windchill Dew Point Humidity Pressure Visibility Wind Dir Wind Speed Gust Speed Precip Events Conditions
12:52 AM 37.0 °F 34.5 °F 28.9 °F 73% 30.08 in 10.0 mi NNE 3.5 mph - N/A   Clear
1:52 AM 36.0 °F 33.3 °F 28.9 °F 76% 30.07 in 10.0 mi NNE 3.5 mph - N/A   Clear
2:52 AM 37.9 °F 34.4 °F 28.9 °F 70% 30.06 in 10.0 mi SE 4.6 mph - N/A   Clear
3:52 AM 35.1 °F - 28.9 °F 78% 30.03 in 10.0 mi Calm Calm - N/A   Clear
4:52 AM 36.0 °F - 28.9 °F 76% 30.02 in 10.0 mi Calm Calm - N/A   Clear
5:52 AM 37.9 °F 32.1 °F 30.0 °F 73% 30.01 in 10.0 mi SSW 8.1 mph - N/A   Clear
6:52 AM 42.1 °F 35.2 °F 30.9 °F 65% 30.02 in 10.0 mi South 12.7 mph - N/A   Clear
7:52 AM 44.1 °F 39.5 °F 32.0 °F 63% 30.03 in 10.0 mi SSE 8.1 mph - N/A   Clear
8:52 AM 50.0 °F - 36.0 °F 59% 30.04 in 10.0 mi South 13.8 mph - N/A   Clear
9:52 AM 55.0 °F - 32.0 °F 42% 30.05 in 10.0 mi SSW 16.1 mph - N/A   Clear
10:52 AM 59.0 °F - 30.9 °F 35% 30.02 in 10.0 mi SW 20.7 mph - N/A   Clear
11:52 AM 60.1 °F - 33.1 °F 36% 29.96 in 10.0 mi SSW 20.7 mph 29.9 mph N/A   Clear
12:52 PM 61.0 °F - 30.9 °F 32% 29.94 in 10.0 mi SW 23.0 mph 34.5 mph N/A   Clear
1:52 PM 61.0 °F - 33.1 °F 35% 29.91 in 10.0 mi SSW 23.0 mph 31.1 mph N/A   Clear
2:52 PM 61.0 °F - 35.1 °F 38% 29.90 in 10.0 mi SSW 20.7 mph 29.9 mph N/A   Clear
3:52 PM 61.0 °F - 36.0 °F 39% 29.89 in 10.0 mi SW 21.9 mph 33.4 mph N/A   Overcast
4:52 PM 59.0 °F - 37.9 °F 46% 29.90 in 10.0 mi South 11.5 mph 21.9 mph N/A   Overcast
5:52 PM 57.9 °F - 39.0 °F 49% 29.90 in 10.0 mi South 12.7 mph - N/A   Overcast
6:52 PM 57.0 °F - 41.0 °F 55% 29.91 in 10.0 mi SSW 15.0 mph - N/A   Partly Cloudy
7:52 PM 55.9 °F - 39.9 °F 55% 29.93 in 10.0 mi South 13.8 mph - N/A   Overcast
8:52 PM 54.0 °F - 41.0 °F 62% 29.94 in 10.0 mi South 12.7 mph - N/A   Mostly Cloudy
9:52 PM 54.0 °F - 37.9 °F 55% 29.96 in 10.0 mi WSW 11.5 mph - N/A   Clear
10:52 PM 51.1 °F - 32.0 °F 48% 29.98 in 10.0 mi North 16.1 mph - N/A   Clear
11:52 PM 48.9 °F - 28.0 °F 44% 30.01 in 10.0 mi North 16.1 mph - N/A   Clear